This is the latest recevied weather packets stored in our database for station/object F4MZI-13. If no packets are shown the sender has not sent any weather packets the latest 10 day(s).
| Time | Temp. | Humidity | Pressure | Rain* | Wind** | Luminosity | Snow |
|---|---|---|---|---|---|---|---|
| 1788098015 | 22.78° C | 55% | 1012 hPa | 0 mm | - | - | - |
| 1788097415 | 22.78° C | 57% | 1012 hPa | 0 mm | - | - | - |
| 1788096815 | 22.78° C | 57% | 1012 hPa | 0 mm | - | - | - |
| 1788096214 | 22.22° C | 60% | 1012 hPa | 0 mm | - | - | - |
| 1788095614 | 22.22° C | 60% | 1012 hPa | 0 mm | - | - | - |
| 1788095014 | 22.22° C | 60% | 1012 hPa | 0 mm | - | - | - |
| 1788094414 | 22.22° C | 60% | 1012 hPa | 0 mm | - | - | - |
| 1788093814 | 22.22° C | 60% | 1012 hPa | 0 mm | - | - | - |
| 1788093214 | 21.67° C | 63% | 1012 hPa | 0 mm | - | - | - |
| 1788092624 | 21.67° C | 63% | 1012 hPa | 0 mm | - | - | - |
| 1788092013 | 21.67° C | 63% | 1012 hPa | 0 mm | - | - | - |
| 1788091413 | 22.22° C | 63% | 1012 hPa | 0 mm | - | - | - |
| 1788090813 | 21.67° C | 69% | 1012 hPa | 0 mm | - | - | - |
| 1788090212 | 21.67° C | 69% | 1012 hPa | 0 mm | - | - | - |
| 1788089612 | 21.11° C | 77% | 1012 hPa | 0 mm | - | - | - |
| 1788089054 | 21.11° C | 77% | 1012 hPa | 0 mm | - | - | - |
| 1788088454 | 21.11° C | 77% | 1012 hPa | 0 mm | - | - | - |
| 1788087854 | 21.67° C | 77% | 1012 hPa | 0 mm | - | - | - |
| 1788087254 | 21.67° C | 77% | 1012 hPa | 0 mm | - | - | - |
| 1788085848 | 21.67° C | 77% | 1012 hPa | 0 mm | - | - | - |
| 1788085248 | 21.67° C | 77% | 1012 hPa | 0 mm | - | - | - |
| 1788084647 | 21.67° C | 77% | 1012 hPa | 0 mm | - | - | - |
| 1788084047 | 20° C | 78% | 1012 hPa | 0 mm | - | - | - |
| 1788083447 | 20° C | 78% | 1012 hPa | 0 mm | - | - | - |
| 1788082847 | 20° C | 78% | 1012 hPa | 0 mm | - | - | - |
* Rain latest hour (hover to see other rain measurements)
** Current wind speed in m/s (hover to see current wind gust speed)